This demonstration page uses our WeatherBlox Daily Observations layout. Learn more.

41.55636, -103.73856

Hourly Observations for October 3, 2016

Temp ( °F °C ) Dew Point ( °F °C ) Humidity (%) Winds ( mph kmh ) Pressure ( in mb ) Visibility ( mi km ) Precip ( " mm )
12:23 am 00:23 Partly Cloudy 62 16.7 51 10.6 67 67 E 8 13 29.71 1006 10 16.0934 0 0
12:53 am 00:53 Cloudy 61 16.1 52 11.1 72 72 E 6 9 29.72 1007 10 16.0934 0 0.0254
1:53 am 01:53 Mostly Cloudy 60 15.6 54 12.2 80 80 E 10 17 29.68 1005 10 16.0934 0.02 0.508
2:53 am 02:53 Partly Cloudy 60 15.6 54 12.2 80 80 E 12 19 29.64 1004 10 16.0934 0 0
3:53 am 03:53 Clear 60 15.6 54 12.2 80 80 ESE 14 22 29.62 1003 10 16.0934 0 0
4:53 am 04:53 Clear 58 14.4 54 12.2 87 87 E 12 19 29.58 1002 10 16.0934 0 0
5:53 am 05:53 Clear 58 14.4 53 11.7 84 84 ESE 16 26 29.56 1001 10 16.0934 0 0
6:53 am 06:53 Clear 58 14.4 53 11.7 84 84 SE 10 17 29.57 1001 10 16.0934 0 0
7:53 am 07:53 Mostly Sunny 58 14.4 53 11.7 84 84 E 13 20 29.52 1000 10 16.0934 0 0
8:53 am 08:53 Sunny 58 14.4 53 11.7 84 84 ESE 14 22 29.52 1000 10 16.0934 0 0
9:53 am 09:53 Sunny 63 17.2 54 12.2 73 73 SE 18 30 29.48 998 10 16.0934 0 0
10:53 am 10:53 Sunny 69 20.6 53 11.7 57 57 SE 14 22 29.43 997 10 16.0934 0 0
11:53 am 11:53 Sunny 74 23.3 53 11.7 48 48 ESE 18 30 29.39 995 10 16.0934 0 0
12:53 pm 12:53 Sunny 79 26.1 50 10 36 36 SSE 14 22 29.36 994 10 16.0934 0 0
1:43 pm 13:43 Partly Cloudy with Light Rain 69 20.6 41 5 36 36 W 29 46 29.29 992 9 14.48406 0 0.0254
1:53 pm 13:53 Mostly Cloudy with Nearby Thunderstorms 67 19.4 41 5 39 39 WNW 25 41 29.41 996 10 16.0934 0 0.0254
2:00 pm 14:00 Cloudy with Nearby Thunderstorms 66 19 43 6 43 43 WNW 23 37 29.35 994 10 16.0934 0 0
2:11 pm 14:11 Mostly Cloudy 69 20.6 42 5.6 38 38 WNW 26 43 29.32 993 10 16.0934 0 0
2:53 pm 14:53 Sunny 72 22.2 38 3.3 29 29 WNW 21 33 29.4 996 10 16.0934 0 0
3:53 pm 15:53 Sunny with Light Rain 68 20 32 0 26 26 WNW 22 35 29.43 997 10 16.0934 0 0.0254
4:53 pm 16:53 Sunny 67 19.4 29 -1.7 24 24 WNW 22 35 29.44 997 10 16.0934 0 0.0254
5:53 pm 17:53 Sunny 62 16.7 29 -1.7 29 29 WNW 14 22 29.45 997 10 16.0934 0 0
6:53 pm 18:53 Cloudy 61 16.1 30 -1.1 31 31 W 9 15 29.45 997 10 16.0934 0 0
7:53 pm 19:53 Mostly Clear with Light Rain 61 16.1 28 -2.2 29 29 WNW 32 52 29.46 998 10 16.0934 0 0.0254
8:53 pm 20:53 Mostly Cloudy 59 15 27 -2.8 29 29 WNW 26 43 29.49 999 10 16.0934 0 0.0254
9:53 pm 21:53 Mostly Cloudy 58 14.4 27 -2.8 31 31 WNW 25 41 29.5 999 10 16.0934 0 0
10:53 pm 22:53 Cloudy 57 13.9 28 -2.2 33 33 WNW 21 33 29.53 1000 10 16.0934 0 0
11:53 pm 23:53 Cloudy 56 13.3 27 -2.8 33 33 W 23 37 29.52 1000 10 16.0934 0 0

Powered by AerisWeather